Weather History for Cecil Field, FL

Change the Weather History Date:

Thursday, April 11, 2013

  Actual Average (KJAX) Record (KJAX)
Temperature  
Mean Temperature 75 °F 66 °F  
Max Temperature 86 °F 78 °F 91 °F (2011)
Min Temperature 64 °F 54 °F 37 °F (1996)
Degree Days  
Heating Degree Days 0 2  
Month to date heating degree days 30  
Since 1 July heating degree days 1319  
Cooling Degree Days 10 3  
Month to date cooling degree days 31  
Year to date cooling degree days 114  
Growing Degree Days 25 (Base 50)    
Moisture  
Dew Point 69 °F    
Average Humidity 94    
Maximum Humidity 100    
Minimum Humidity 51    
Precipitation  
Precipitation 0.00 in 0.09 in 2.80 in (1975)
Month to date precipitation 1.10  
Year to date precipitation 11.54  
Snow  
Snow 0.00 in 0.00 in 0.00 in (2002)
Month to date snowfall 0.0  
Since 1 July snowfall T  
Snow Depth -    
Sea Level Pressure  
Sea Level Pressure 29.93 in    
Wind  
Wind Speed 2 mph (SE)    
Max Wind Speed 12 mph    
Max Gust Speed -    
Visibility 7 miles    
Events Rain    
T = Trace of Precipitation, MM = Missing Value Source: NWS Daily Summary

Daily Weather History Graph

Daily Weather History Graph

Search for Another Location

Airport:

Trip Planner

Search our weather history database for the weather conditions in past years. The results will help you decide how hot, cold, wet, or windy it might be!

Date:

Astronomy

Apr. 11, 2013 Rise Set
Actual Time 7:04 AM EDT 7:52 PM EDT
Civil Twilight 6:40 AM EDT 8:17 PM EDT
Nautical Twilight 6:11 AM EDT 8:45 PM EDT
Astronomical Twilight 5:42 AM EDT 9:15 PM EDT
Moon 7:41 AM EDT (4/11) 9:17 PM EDT (4/11)
Length of Visible Light 13h 36m
Length of Day
12h 47m
New Moon, 2% of the Moon is Illuminated
Apr 11
New Moon
Apr 18
First Quarter
Apr 25
Full
May 2
Last Quarter
May 9
New

Hourly Weather History & Observations

Time (EDT) Temp. Heat Index Dew Point Humidity Pressure Visibility Wind Dir Wind Speed Gust Speed Precip Events Conditions
12:15 AM 68.0 °F - 66.2 °F 94% 30.01 in 10.0 mi Calm Calm - N/A   Clear
12:35 AM 66.2 °F - 66.2 °F 100% 30.01 in 9.0 mi Calm Calm - N/A   Clear
12:55 AM 66.2 °F - 66.2 °F 100% 30.01 in 7.0 mi Calm Calm - N/A   Clear
1:15 AM 64.4 °F - 64.4 °F 100% 30.00 in 4.0 mi Calm Calm - N/A   Scattered Clouds
1:35 AM 66.2 °F - 66.2 °F 100% 30.00 in 6.0 mi Calm Calm - N/A   Overcast
1:55 AM 66.2 °F - 66.2 °F 100% 30.00 in 7.0 mi Calm Calm - N/A   Overcast
2:15 AM 68.0 °F - 68.0 °F 100% 29.99 in 7.0 mi Calm Calm - N/A   Overcast
2:35 AM 68.0 °F - 68.0 °F 100% 29.98 in 7.0 mi SE 3.5 mph - N/A   Overcast
2:55 AM 68.0 °F - 68.0 °F 100% 29.98 in 6.0 mi SSE 3.5 mph - N/A   Overcast
3:15 AM 68.0 °F - 68.0 °F 100% 29.97 in 6.0 mi SE 4.6 mph - N/A   Overcast
3:35 AM 68.0 °F - 68.0 °F 100% 29.97 in 7.0 mi SSE 3.5 mph - N/A   Overcast
3:55 AM 68.0 °F - 68.0 °F 100% 29.96 in 7.0 mi SSE 4.6 mph - N/A   Overcast
4:15 AM 68.0 °F - 68.0 °F 100% 29.96 in 7.0 mi SE 3.5 mph - N/A   Scattered Clouds
4:35 AM 68.0 °F - 68.0 °F 100% 29.96 in 7.0 mi Calm Calm - N/A   Scattered Clouds
4:55 AM 68.0 °F - 68.0 °F 100% 29.96 in 6.0 mi Calm Calm - N/A   Scattered Clouds
5:15 AM 68.0 °F - 68.0 °F 100% 29.96 in 6.0 mi ESE 3.5 mph - N/A   Scattered Clouds
5:35 AM 68.0 °F - 68.0 °F 100% 29.96 in 5.0 mi Calm Calm - N/A   Partly Cloudy
5:55 AM 68.0 °F - 68.0 °F 100% 29.97 in 4.0 mi Calm Calm - N/A   Partly Cloudy
6:15 AM 68.0 °F - 68.0 °F 100% 29.96 in 3.0 mi Calm Calm - N/A   Partly Cloudy
6:35 AM 68.0 °F - 68.0 °F 100% 29.96 in 3.0 mi Calm Calm - N/A   Partly Cloudy
6:50 AM 68.0 °F - 68.0 °F 100% 29.97 in 7.0 mi Calm Calm - N/A   Scattered Clouds
7:50 AM 68.0 °F - 68.0 °F 100% 30.00 in 7.0 mi Calm Calm - N/A   Scattered Clouds
8:50 AM 69.8 °F - 69.8 °F 100% 30.00 in 7.0 mi SSE 5.8 mph - N/A   Overcast
9:50 AM 73.4 °F - 71.6 °F 94% 30.01 in 7.0 mi SSE 8.1 mph - N/A   Mostly Cloudy
10:50 AM 77.0 °F - 69.8 °F 78% 30.01 in 7.0 mi South 11.5 mph - N/A   Mostly Cloudy
11:50 AM 80.6 °F 83.2 °F 68.0 °F 65% 29.99 in 7.0 mi SSE 11.5 mph - N/A   Mostly Cloudy
12:50 PM 82.4 °F 85.4 °F 68.0 °F 62% 29.97 in 7.0 mi South 11.5 mph - N/A   Mostly Cloudy
1:50 PM 78.8 °F - 71.6 °F 78% 29.95 in 7.0 mi South 3.5 mph - N/A   Mostly Cloudy
2:50 PM 82.4 °F 87.2 °F 71.6 °F 70% 29.91 in 7.0 mi SSE 6.9 mph - N/A   Mostly Cloudy
3:50 PM 84.2 °F 88.4 °F 69.8 °F 62% 29.87 in 7.0 mi SSE 9.2 mph - N/A   Mostly Cloudy
4:50 PM 86.0 °F 88.2 °F 66.2 °F 51% 29.83 in 7.0 mi South 11.5 mph - N/A   Mostly Cloudy
5:50 PM 80.6 °F 84.6 °F 71.6 °F 74% 29.83 in 7.0 mi SE 9.2 mph - N/A   Mostly Cloudy
6:50 PM 75.2 °F - 73.4 °F 94% 29.83 in 7.0 mi SE 9.2 mph - N/A   Mostly Cloudy
7:50 PM 71.6 °F - 71.6 °F 100% 29.83 in 6.0 mi SSE 5.8 mph - N/A Rain Light Rain
8:15 PM 71.6 °F - 71.6 °F 100% 29.82 in 9.0 mi ESE 3.5 mph - N/A   Partly Cloudy
8:35 PM 71.6 °F - 71.6 °F 100% 29.83 in 9.0 mi Calm Calm - N/A   Partly Cloudy
8:55 PM 71.6 °F - 71.6 °F 100% 29.83 in 6.0 mi Calm Calm - N/A   Scattered Clouds
9:15 PM 71.6 °F - 71.6 °F 100% 29.83 in 7.0 mi Calm Calm - N/A   Scattered Clouds
9:35 PM 71.6 °F - 71.6 °F 100% 29.83 in 3.0 mi ESE 6.9 mph - N/A Rain Light Rain
9:55 PM 71.6 °F - 71.6 °F 100% 29.84 in 8.0 mi SE 4.6 mph - N/A   Partly Cloudy
10:15 PM 71.6 °F - 71.6 °F 100% 29.84 in 8.0 mi ESE 5.8 mph - N/A   Partly Cloudy
10:35 PM 71.6 °F - 71.6 °F 100% 29.85 in 8.0 mi SE 4.6 mph - N/A   Scattered Clouds
10:55 PM 71.6 °F - 71.6 °F 100% 29.86 in 7.0 mi SSE 4.6 mph - N/A Rain Light Rain
11:15 PM 71.6 °F - 71.6 °F 100% 29.85 in 8.0 mi SE 4.6 mph - N/A   Mostly Cloudy
11:35 PM 71.6 °F - 71.6 °F 100% 29.85 in 8.0 mi Calm Calm - N/A   Scattered Clouds
11:55 PM 71.6 °F - 71.6 °F 100% 29.86 in 8.0 mi Calm Calm - N/A   Partly Cloudy